AEE7MK LGMK-LGAV

Flight info

Callsign AEE7MK
Flight time 0h 23m
Altitude 12000
Route VARIX
Aircraft A320/M-SDE3FGHIRWY/LB1

Departure

Time 2026-04-24 14:45
Airport Mykonos Island National Airport (LGMK)

Arrival

Time 2026-04-24 15:08
Airport Athens Eleftherios Venizelos International Airport (LGAV)
Time Latitude Longitude Altitude Speed Heading
2026-04-24 14:24 37.43529 25.34651 409 ft 0 kts 252°
2026-04-24 14:37 37.43529 25.34652 409 ft 1 kts 252°
2026-04-24 14:37 37.43535 25.34670 406 ft 3 kts 235°
2026-04-24 14:37 37.43547 25.34686 405 ft 3 kts 194°
2026-04-24 14:37 37.43566 25.34687 402 ft 3 kts 164°
2026-04-24 14:38 37.43581 25.34680 407 ft 1 kts 159°
2026-04-24 14:38 37.43583 25.34680 404 ft 0 kts 159°
2026-04-24 14:39 37.43582 25.34680 407 ft 1 kts 159°
2026-04-24 14:40 37.43573 25.34685 405 ft 3 kts 159°
2026-04-24 14:40 37.43548 25.34697 406 ft 5 kts 159°
2026-04-24 14:40 37.43503 25.34719 405 ft 9 kts 159°
2026-04-24 14:40 37.43434 25.34759 405 ft 13 kts 143°
2026-04-24 14:41 37.43388 25.34861 404 ft 14 kts 124°
2026-04-24 14:41 37.43299 25.34919 404 ft 16 kts 160°
2026-04-24 14:41 37.43186 25.34971 404 ft 19 kts 160°
2026-04-24 14:41 37.43061 25.35025 407 ft 16 kts 162°
2026-04-24 14:42 37.42952 25.35073 407 ft 18 kts 160°
2026-04-24 14:42 37.42828 25.35130 409 ft 14 kts 160°
2026-04-24 14:42 37.42752 25.35126 411 ft 12 kts 189°
2026-04-24 14:42 37.42704 25.35173 410 ft 11 kts 44°
2026-04-24 14:43 37.42778 25.35149 406 ft 12 kts 338°
2026-04-24 14:43 37.42829 25.35126 409 ft 0 kts 340°
2026-04-24 14:44 37.42939 25.35075 407 ft 38 kts 340°
2026-04-24 14:44 37.43425 25.34861 403 ft 107 kts 341°
2026-04-24 14:44 37.44284 25.34479 412 ft 153 kts 340°
2026-04-24 14:44 37.45341 25.34038 781 ft 162 kts 341°
2026-04-24 14:45 37.46373 25.33493 1352 ft 160 kts 326°
2026-04-24 14:45 37.47263 25.32673 1973 ft 158 kts 313°
2026-04-24 14:45 37.47804 25.31435 2382 ft 173 kts 280°
2026-04-24 14:45 37.47915 25.29826 2721 ft 196 kts 274°
2026-04-24 14:46 37.48015 25.28006 3016 ft 221 kts 274°
2026-04-24 14:46 37.48132 25.25966 3470 ft 246 kts 274°
2026-04-24 14:46 37.48265 25.23743 4163 ft 260 kts 274°
2026-04-24 14:46 37.48328 25.21446 5076 ft 266 kts 263°
2026-04-24 14:47 37.47997 25.19964 5656 ft 269 kts 244°
2026-04-24 14:47 37.46450 25.17463 6881 ft 274 kts 228°
2026-04-24 14:47 37.45165 25.15673 7776 ft 277 kts 228°
2026-04-24 14:47 37.43860 25.13866 8646 ft 281 kts 228°
2026-04-24 14:48 37.42540 25.12033 9488 ft 284 kts 228°
2026-04-24 14:48 37.41206 25.10171 10260 ft 291 kts 228°
2026-04-24 14:48 37.39801 25.08203 10550 ft 314 kts 228°
2026-04-24 14:48 37.38467 25.05959 11047 ft 326 kts 242°
2026-04-24 14:49 37.37650 25.03289 11691 ft 331 kts 257°
2026-04-24 14:49 37.37445 25.00407 11942 ft 332 kts 274°
2026-04-24 14:49 37.37913 24.97601 12005 ft 324 kts 289°
2026-04-24 14:49 37.38643 24.94943 12009 ft 321 kts 289°
2026-04-24 14:50 37.39359 24.92292 12009 ft 320 kts 288°
2026-04-24 14:50 37.40064 24.89635 12010 ft 320 kts 288°
2026-04-24 14:50 37.40764 24.86980 12007 ft 320 kts 288°
2026-04-24 14:50 37.41466 24.84321 12009 ft 320 kts 288°
2026-04-24 14:51 37.42168 24.81666 12009 ft 320 kts 288°
2026-04-24 14:51 37.42870 24.79016 12009 ft 320 kts 288°
2026-04-24 14:51 37.43573 24.76362 12010 ft 320 kts 288°
2026-04-24 14:51 37.44273 24.73709 12011 ft 320 kts 288°
2026-04-24 14:52 37.44961 24.71085 12013 ft 320 kts 288°
2026-04-24 14:52 37.45658 24.68428 12014 ft 320 kts 288°
2026-04-24 14:52 37.46358 24.65766 12018 ft 320 kts 288°
2026-04-24 14:52 37.47057 24.63104 12018 ft 320 kts 288°
2026-04-24 14:53 37.47757 24.60442 12023 ft 320 kts 288°
2026-04-24 14:53 37.48456 24.57779 12022 ft 320 kts 288°
2026-04-24 14:53 37.49154 24.55114 12005 ft 319 kts 288°
2026-04-24 14:53 37.49840 24.52488 11751 ft 312 kts 288°
2026-04-24 14:54 37.50509 24.49920 11506 ft 305 kts 288°
2026-04-24 14:54 37.51163 24.47404 11202 ft 301 kts 288°
2026-04-24 14:54 37.51810 24.44911 10878 ft 298 kts 288°
2026-04-24 14:54 37.52455 24.42443 10549 ft 295 kts 288°
2026-04-24 14:55 37.52888 24.40788 10332 ft 293 kts 288°
2026-04-24 14:55 37.53724 24.37574 9902 ft 290 kts 288°
2026-04-24 14:55 37.54349 24.35165 9576 ft 288 kts 288°
2026-04-24 14:55 37.54969 24.32771 9250 ft 286 kts 288°
2026-04-24 14:56 37.55583 24.30402 9024 ft 282 kts 288°
2026-04-24 14:56 37.56332 24.28113 9010 ft 283 kts 294°
2026-04-24 14:56 37.57122 24.25841 9008 ft 283 kts 293°
2026-04-24 14:56 37.57906 24.23565 9003 ft 283 kts 293°
2026-04-24 14:57 37.58689 24.21285 9003 ft 283 kts 293°
2026-04-24 14:57 37.59358 24.19334 8834 ft 283 kts 293°
2026-04-24 14:57 37.60134 24.17061 8566 ft 281 kts 293°
2026-04-24 14:57 37.60904 24.14804 8299 ft 279 kts 293°
2026-04-24 14:58 37.61673 24.12559 8024 ft 278 kts 293°
2026-04-24 14:58 37.62439 24.10324 7749 ft 277 kts 293°
2026-04-24 14:58 37.63203 24.08098 7472 ft 276 kts 293°
2026-04-24 14:58 37.63965 24.05882 7197 ft 275 kts 293°
2026-04-24 14:59 37.64725 24.03675 6926 ft 274 kts 293°
2026-04-24 14:59 37.65479 24.01477 6648 ft 272 kts 293°
2026-04-24 14:59 37.66190 23.99393 6389 ft 270 kts 293°
2026-04-24 14:59 37.66931 23.97221 6107 ft 267 kts 293°
2026-04-24 15:00 37.67663 23.95077 5908 ft 265 kts 294°
2026-04-24 15:00 37.68392 23.92935 5570 ft 266 kts 296°
2026-04-24 15:00 37.69109 23.90821 5210 ft 257 kts 296°
2026-04-24 15:00 37.69797 23.88785 4858 ft 247 kts 296°
2026-04-24 15:01 37.70459 23.86830 4493 ft 238 kts 296°
2026-04-24 15:01 37.71102 23.84936 4109 ft 231 kts 297°
2026-04-24 15:01 37.71727 23.83095 3728 ft 226 kts 297°
2026-04-24 15:01 37.72331 23.81317 3353 ft 221 kts 297°
2026-04-24 15:02 37.72988 23.79604 3020 ft 211 kts 313°
2026-04-24 15:02 37.74097 23.78594 2986 ft 190 kts 347°
2026-04-24 15:02 37.75362 23.78517 2994 ft 181 kts 17°
2026-04-24 15:02 37.76458 23.79248 3009 ft 179 kts 37°
2026-04-24 15:03 37.77130 23.79885 3027 ft 178 kts 36°
2026-04-24 15:03 37.78424 23.81115 3004 ft 173 kts 37°
2026-04-24 15:03 37.79069 23.81726 2992 ft 171 kts 37°
2026-04-24 15:03 37.80321 23.82912 2802 ft 168 kts 36°
2026-04-24 15:04 37.80944 23.83501 2607 ft 169 kts 36°
2026-04-24 15:04 37.81879 23.84386 2348 ft 167 kts 37°
2026-04-24 15:04 37.82812 23.85270 2075 ft 167 kts 37°
2026-04-24 15:04 37.83737 23.86146 1840 ft 166 kts 37°
2026-04-24 15:05 37.84657 23.87018 1498 ft 165 kts 38°
2026-04-24 15:05 37.85576 23.87889 1463 ft 165 kts 38°
2026-04-24 15:05 37.86493 23.88758 1463 ft 164 kts 38°
2026-04-24 15:05 37.87402 23.89620 1461 ft 163 kts 38°
2026-04-24 15:06 37.88322 23.90494 1324 ft 164 kts 37°
2026-04-24 15:06 37.89191 23.91318 1150 ft 147 kts 38°
2026-04-24 15:06 37.89960 23.92048 955 ft 133 kts 38°
2026-04-24 15:06 37.90693 23.92744 788 ft 130 kts 40°
2026-04-24 15:07 37.91408 23.93423 603 ft 128 kts 40°
2026-04-24 15:07 37.92125 23.94102 463 ft 128 kts 42°
2026-04-24 15:07 37.92834 23.94775 318 ft 128 kts 39°
2026-04-24 15:07 37.93478 23.95397 282 ft 99 kts 37°
2026-04-24 15:08 37.93792 23.95697 277 ft 23 kts 35°
2026-04-24 15:08 37.93921 23.95816 279 ft 24 kts 37°
2026-04-24 15:08 37.94047 23.95941 277 ft 9 kts 39°
2026-04-24 15:08 37.94115 23.95968 276 ft 12 kts 17°
2026-04-24 15:09 37.94209 23.96004 275 ft 16 kts 10°
2026-04-24 15:09 37.94299 23.96006 275 ft 7 kts 357°
2026-04-24 15:09 37.94309 23.96005 275 ft 0 kts 357°
2026-04-24 15:09 37.94321 23.95998 275 ft 4 kts 330°
2026-04-24 15:10 37.94328 23.95962 275 ft 6 kts 255°
2026-04-24 15:10 37.94306 23.95913 277 ft 7 kts 218°
2026-04-24 15:10 37.94263 23.95863 275 ft 9 kts 219°
2026-04-24 15:10 37.94206 23.95809 276 ft 11 kts 217°
2026-04-24 15:11 37.94140 23.95746 279 ft 13 kts 217°
2026-04-24 15:11 37.94085 23.95657 277 ft 14 kts 272°
2026-04-24 15:11 37.94117 23.95577 277 ft 9 kts 307°
2026-04-24 15:11 37.94144 23.95533 278 ft 1 kts 308°
2026-04-24 15:12 37.94152 23.95521 282 ft 3 kts 308°
2026-04-24 15:12 37.94183 23.95470 281 ft 0 kts 308°
2026-04-24 15:12 37.94184 23.95468 278 ft 0 kts 308°
2026-04-24 15:13 37.94185 23.95466 278 ft 1 kts 302°
2026-04-24 15:13 37.94186 23.95451 278 ft 2 kts 269°
2026-04-24 15:13 37.94173 23.95433 283 ft 4 kts 215°
2026-04-24 15:13 37.94143 23.95406 283 ft 6 kts 216°
2026-04-24 15:14 37.94128 23.95392 279 ft 2 kts 218°
2026-04-24 15:14 37.94125 23.95389 279 ft 0 kts 217°